This is the latest recevied weather packets stored in our database for station/object K1JO. If no packets are shown the sender has not sent any weather packets the latest 10 day(s).
| Time | Temp. | Humidity | Pressure | Rain* | Wind** | Luminosity | Snow |
|---|---|---|---|---|---|---|---|
| 1777331984 | 13.89° C | 58% | 1020.2 hPa | 0 mm | - | 10 W/m² | - |
| 1777331683 | 13.89° C | 57% | 1020.3 hPa | 0 mm | - | 13 W/m² | - |
| 1777331379 | 14.44° C | 57% | 1020.3 hPa | 0 mm | - | 15 W/m² | - |
| 1777331077 | 14.44° C | 56% | 1020.2 hPa | 0 mm | - | 18 W/m² | - |
| 1777330773 | 15° C | 55% | 1020.3 hPa | 0 mm | - | 21 W/m² | - |
| 1777330471 | 15° C | 56% | 1019.9 hPa | 0 mm | - | 25 W/m² | - |
| 1777330168 | 15° C | 54% | 1020.2 hPa | 0 mm | - | 26 W/m² | - |
| 1777329866 | 15° C | 55% | 1020 hPa | 0 mm | - | 28 W/m² | - |
| 1777329565 | 15.56° C | 54% | 1019.8 hPa | 0 mm | - | 28 W/m² | - |
| 1777329262 | 15.56° C | 54% | 1020 hPa | 0 mm | - | 30 W/m² | - |
| 1777328960 | 15.56° C | 53% | 1019.8 hPa | 0 mm | - | 31 W/m² | - |
| 1777328657 | 16.11° C | 53% | 1019.6 hPa | 0 mm | - | 33 W/m² | - |
| 1777328355 | 16.67° C | 52% | 1019.9 hPa | 0 mm | - | 34 W/m² | - |
| 1777328053 | 16.67° C | 52% | 1019.9 hPa | 0 mm | - | 35 W/m² | - |
| 1777327751 | 16.67° C | 52% | 1019.7 hPa | 0 mm | - | 37 W/m² | - |
| 1777327449 | 17.22° C | 51% | 1019.6 hPa | 0 mm | - | 39 W/m² | - |
| 1777327145 | 17.78° C | 51% | 1019.7 hPa | 0 mm | - | 56 W/m² | - |
| 1777326843 | 17.78° C | 49% | 1019.6 hPa | 0 mm | - | 69 W/m² | - |
| 1777326539 | 17.78° C | 50% | 1019.4 hPa | 0 mm | - | 49 W/m² | - |
| 1777326237 | 18.33° C | 50% | 1019.4 hPa | 0 mm | - | 43 W/m² | - |
| 1777325934 | 18.89° C | 49% | 1019.3 hPa | 0 mm | - | 44 W/m² | - |
| 1777325632 | 18.89° C | 48% | 1019.2 hPa | 0 mm | - | 63 W/m² | - |
| 1777325330 | 19.44° C | 49% | 1019.4 hPa | 0 mm | - | 171 W/m² | - |
| 1777325028 | 20° C | 47% | 1019.2 hPa | 0 mm | - | 188 W/m² | - |
| 1777324724 | 20° C | 47% | 1019.2 hPa | 0 mm | - | 203 W/m² | - |
* Rain latest hour (hover to see other rain measurements)
** Current wind speed in m/s (hover to see current wind gust speed)